Theta_e
312 310 305 302 301 301 302 302 302 303 303 303 303 303 302 303 303 303 303 303 303 303 303 303 303 303 303 302 304 304 305 307 307 306 305 304 304 304 304 304 305 305 305 305 305 305 306 306 306 304 306 307 306 308 306 310 315 318 321 317 319 324 323 325 325 320 316 318 319 318 317 318 318 319 316 314 319 323 319 319 318 313 309 309 309 308 310 313
306 308 306 301 301 301 301 302 303 303 302 302 303 302 302 303 302 303 303 303 303 303 303 303 303 303 302 303 304 305 306 307 307 304 304 304 304 304 305 304 304 305 305 305 305 305 307 309 306 305 308 308 306 308 309 308 312 325 323 315 323 328 324 321 319 317 314 313 315 314 313 316 316 317 315 315 323 323 322 325 321 322 318 311 308 308 310 312
302 303 303 301 301 301 301 302 302 302 302 303 303 303 304 304 304 304 304 304 304 304 303 303 303 303 303 303 304 306 307 307 307 305 304 304 304 305 305 305 304 304 305 305 305 304 306 308 304 305 309 309 307 309 313 310 311 321 319 317 328 327 321 317 313 311 309 308 311 312 311 314 316 315 315 317 322 323 326 328 323 326 327 318 310 308 309 311
301 301 301 302 301 301 301 302 303 303 303 304 304 305 305 305 306 305 306 305 305 304 303 304 303 303 303 303 305 306 306 308 307 304 304 304 304 305 305 305 304 304 306 305 305 304 305 305 303 306 309 309 310 309 311 311 310 313 315 323 326 316 316 313 309 309 307 306 308 312 312 313 312 312 316 317 318 322 328 327 321 323 326 321 311 308 309 310
301 301 301 302 302 301 302 303 304 304 304 305 306 306 306 306 306 306 306 305 305 304 303 303 303 303 303 304 306 306 307 311 308 303 303 304 304 305 305 304 304 305 306 305 305 304 304 303 303 309 310 308 311 310 307 308 309 312 315 320 317 310 311 309 307 308 307 306 308 313 313 309 310 311 318 319 317 321 325 322 320 320 317 317 313 308 309 310
301 302 302 302 302 302 302 304 305 305 306 305 305 306 306 305 306 306 306 305 304 303 303 303 303 303 303 305 306 305 309 310 305 303 304 304 305 305 305 304 305 305 305 305 304 303 304 305 305 311 313 309 309 307 306 307 307 313 315 311 310 309 308 307 307 308 308 308 309 312 308 306 311 312 314 318 318 320 321 315 313 312 306 308 309 309 310 310
302 302 302 303 303 302 302 304 306 305 305 304 304 304 304 304 305 306 305 304 303 303 304 302 303 303 303 305 305 309 312 307 303 303 304 304 305 305 305 305 305 305 305 304 303 304 306 308 308 310 312 308 306 306 307 309 308 312 313 308 307 306 306 306 307 310 311 308 307 307 305 306 311 310 307 312 316 317 313 303 300 300 300 304 308 309 309 310
303 303 303 303 303 303 302 304 306 305 304 303 303 303 304 304 304 304 304 303 303 304 303 302 303 302 303 306 309 314 311 303 302 303 303 304 305 305 305 305 305 305 304 304 303 304 306 307 306 306 309 306 305 307 307 309 311 312 311 308 307 306 307 307 307 311 312 309 305 304 306 308 310 306 305 308 309 309 306 301 300 299 302 305 307 309 308 309
303 303 303 303 304 303 303 305 305 304 303 303 303 303 303 303 303 304 303 303 303 303 302 303 302 302 305 306 310 315 307 302 303 302 301 303 304 305 305 305 305 305 304 305 304 303 305 306 305 304 306 305 304 309 309 309 309 309 309 308 307 307 307 306 306 308 309 308 304 303 306 308 305 303 305 308 306 306 306 308 307 307 308 306 305 308 308 309
303 303 303 303 303 303 303 305 305 304 303 303 303 303 303 303 303 303 303 303 303 302 302 302 302 304 308 307 310 311 304 303 303 301 302 302 304 305 305 305 305 305 305 305 304 304 305 304 304 302 305 306 306 308 308 308 307 308 310 309 308 308 306 306 306 305 307 306 303 303 305 304 302 302 306 307 304 303 312 315 307 308 311 306 304 306 307 309
303 303 303 303 303 303 303 305 306 305 303 302 303 303 303 303 303 303 303 303 303 303 303 303 303 305 307 307 310 308 303 303 303 302 302 302 304 305 305 305 305 305 305 305 304 304 304 303 302 301 304 306 308 309 306 305 306 307 310 308 308 310 305 304 307 304 304 304 303 303 302 302 301 303 308 306 302 302 314 320 310 305 305 301 303 305 307 308
302 302 303 303 303 303 303 305 306 305 303 303 303 303 303 303 303 303 304 304 304 305 304 304 305 305 306 307 307 305 303 303 303 302 302 302 304 305 305 305 305 305 305 304 304 304 304 303 304 305 306 305 308 308 304 305 305 306 308 306 310 315 308 303 306 304 302 303 304 303 303 304 303 308 312 306 301 303 310 319 315 306 299 298 301 303 305 306
302 302 302 303 303 302 303 306 306 305 304 303 302 303 304 304 304 305 306 305 305 305 305 305 305 306 309 308 305 303 304 303 302 302 302 303 304 305 305 304 305 305 305 305 304 305 304 303 305 307 307 310 310 304 306 308 306 305 306 307 314 318 312 303 303 305 302 303 305 304 304 305 305 311 313 304 302 306 309 315 316 309 301 299 300 301 304 304
302 302 302 302 302 302 304 306 306 305 304 304 303 304 305 306 306 306 306 306 305 306 306 307 307 306 308 308 304 303 304 302 302 302 302 303 304 305 304 304 305 305 305 305 305 304 305 304 305 306 305 308 306 302 310 315 311 308 304 310 312 311 314 308 303 307 304 303 306 304 305 305 302 306 307 303 303 306 309 313 314 311 305 301 300 300 302 302
302 302 302 302 302 303 305 307 307 305 304 304 304 305 305 305 306 306 306 307 307 308 309 309 307 307 308 305 302 303 303 302 302 301 301 303 304 304 304 305 305 305 305 305 305 305 304 305 305 307 305 304 307 310 317 316 314 310 304 314 313 307 314 310 302 305 304 304 306 303 305 308 303 303 303 303 305 307 308 309 309 309 305 302 301 299 300 301
301 301 301 302 302 303 306 308 306 304 305 304 305 306 305 306 306 307 307 306 307 309 309 309 306 308 311 306 302 303 301 301 302 300 301 303 303 304 304 305 304 304 305 304 305 304 304 306 305 303 304 306 312 315 315 316 319 312 306 310 312 307 310 306 301 301 301 302 305 304 303 306 304 303 304 305 307 308 307 305 302 303 302 301 300 298 299 300
301 301 301 302 302 304 307 308 306 305 305 304 305 307 307 307 306 307 308 306 306 306 305 306 305 307 308 304 302 302 301 301 301 301 302 302 303 304 304 304 304 303 304 304 305 305 304 306 303 302 306 306 306 307 308 314 318 315 310 309 308 306 305 306 304 300 299 301 302 303 303 303 303 301 301 302 305 305 303 301 299 299 299 299 298 299 299 299
301 301 302 302 302 305 307 307 305 304 304 305 305 306 307 306 305 306 308 307 306 306 306 304 305 307 305 303 302 301 301 301 301 301 301 302 303 304 304 303 301 302 307 306 304 306 305 306 307 307 309 305 306 311 308 306 306 307 309 308 307 307 305 307 307 302 300 300 299 301 301 301 300 298 297 297 299 302 301 298 297 296 296 297 297 298 299 298
303 302 302 302 304 306 307 306 305 304 305 306 306 306 306 306 307 306 305 306 307 307 308 305 304 306 303 302 301 300 301 300 301 301 301 303 302 303 303 301 302 305 310 307 305 308 307 312 314 309 307 305 305 308 305 303 304 305 306 306 305 307 305 304 306 304 300 299 300 300 300 299 297 297 298 296 296 298 299 298 298 297 295 296 297 297 297 298
304 304 303 303 305 306 306 306 306 306 306 305 307 308 309 311 311 308 305 306 306 303 304 306 302 302 302 301 301 301 301 300 300 301 301 302 301 303 302 301 310 313 309 308 306 305 306 314 311 305 307 306 302 303 303 304 305 305 306 306 305 305 305 303 303 303 300 301 304 302 299 298 297 298 298 297 298 301 303 303 303 302 298 297 298 298 298 298
304 304 304 303 304 306 305 307 307 306 305 306 308 310 312 313 308 305 305 304 302 299 302 304 300 300 301 299 300 299 299 300 299 299 301 302 301 302 302 306 316 311 306 306 306 306 311 312 305 303 306 304 302 303 303 303 305 305 304 304 305 305 305 302 299 301 300 300 303 301 299 300 299 299 299 298 301 305 304 303 304 303 301 298 298 299 298 297
304 304 304 303 304 306 305 307 307 306 306 306 308 310 310 309 306 305 305 305 302 299 300 301 299 301 301 299 300 298 300 303 301 300 301 302 304 304 305 311 314 308 306 307 308 311 314 307 300 302 303 301 302 303 302 303 306 306 303 302 304 303 303 302 298 300 300 299 302 302 299 300 299 299 302 301 303 305 302 300 301 301 301 299 298 298 297 297
304 304 304 303 304 306 305 307 307 306 307 306 308 310 308 307 306 305 306 308 306 302 303 303 302 304 303 301 300 299 302 302 301 302 300 304 307 306 310 315 314 311 309 312 313 308 305 301 300 301 301 301 302 302 302 303 305 305 301 301 304 301 300 303 301 300 300 297 300 302 300 301 300 303 305 300 299 302 301 300 300 299 300 298 297 296 295 297
305 304 304 303 303 305 305 306 306 306 306 306 307 309 308 307 307 306 309 310 308 305 304 303 301 302 303 302 300 301 303 300 300 302 300 304 306 304 309 311 313 313 307 311 315 307 299 299 299 301 302 301 301 302 303 303 305 307 303 301 304 301 298 300 300 299 298 296 297 301 304 306 304 306 309 303 299 301 299 299 299 297 296 296 295 294 294 296
304 303 303 302 304 305 305 306 307 306 305 306 306 308 307 307 306 307 311 312 311 308 304 301 301 301 301 301 300 301 302 300 300 300 299 302 304 304 305 303 306 309 306 306 309 305 301 297 297 301 302 302 302 303 304 303 304 306 304 301 301 301 299 301 301 300 301 300 298 298 305 310 307 307 309 307 305 303 299 298 297 295 294 293 294 294 294 295
304 303 302 302 303 305 306 306 306 306 306 305 306 308 307 308 307 306 312 318 316 310 305 303 302 301 301 301 301 300 302 302 299 298 300 301 301 302 303 303 301 303 307 305 303 302 300 297 298 301 304 304 302 303 303 303 304 303 300 298 300 301 299 301 300 300 303 303 297 296 302 307 305 307 308 304 305 303 299 298 297 295 294 293 293 293 294 295
304 303 302 302 303 305 306 306 306 306 307 305 306 308 307 308 308 304 311 319 314 308 306 305 302 301 302 300 298 300 301 301 298 299 300 299 300 300 303 306 302 301 305 303 302 303 300 299 300 302 304 303 303 305 303 302 304 301 298 298 301 301 299 300 299 298 301 301 298 297 299 302 306 308 303 300 303 302 300 299 296 294 293 293 293 292 293 294
304 303 303 303 302 304 306 306 306 306 307 307 306 307 308 307 307 308 312 312 308 306 306 306 302 301 303 300 299 303 302 300 301 300 298 297 299 301 306 307 303 305 303 302 303 305 299 302 302 302 304 303 304 305 302 300 300 299 297 299 301 299 299 300 299 302 300 299 304 303 297 301 310 309 301 300 302 301 300 298 296 295 293 292 293 292 292 293
303 304 304 303 303 304 307 309 308 306 308 309 306 306 308 305 307 311 310 307 306 305 306 304 301 301 304 303 303 306 303 301 303 301 298 298 298 300 305 305 306 308 302 302 309 307 300 302 302 302 304 303 305 302 298 300 299 297 297 298 298 298 300 300 300 305 302 302 308 304 297 300 309 310 303 300 300 298 299 298 296 295 293 292 292 292 292 291
303 304 303 304 304 304 307 308 307 308 308 308 306 306 305 308 319 319 309 307 306 305 305 303 301 304 306 304 303 304 303 303 304 302 301 301 301 302 300 300 306 309 305 305 307 304 300 299 299 301 301 300 301 299 296 298 298 297 298 298 298 297 298 301 302 302 303 310 310 301 298 299 303 309 303 297 298 296 296 298 296 294 293 292 292 291 291 291
303 303 303 304 304 305 306 305 306 308 308 307 306 304 305 311 323 321 307 306 305 304 306 303 303 309 310 304 301 304 306 305 304 305 306 305 307 309 303 303 308 311 317 316 305 300 299 300 303 301 300 299 299 299 295 296 298 298 299 299 299 300 298 301 306 302 303 315 308 298 299 299 301 308 302 295 296 295 294 296 295 294 293 292 291 291 291 290
303 302 304 304 305 307 306 305 306 306 307 307 304 308 314 311 314 315 308 307 306 306 306 302 303 308 308 303 300 303 305 304 303 306 308 306 309 309 303 305 307 308 319 315 304 304 303 302 302 300 299 299 299 301 297 297 300 298 299 303 305 308 305 306 310 305 306 311 301 295 297 297 300 304 300 296 295 294 294 294 294 294 293 292 291 291 290 290
305 303 303 303 305 305 305 306 306 305 306 306 307 316 322 314 311 314 311 306 303 305 304 302 302 304 304 303 300 300 300 301 304 304 302 303 305 304 300 301 302 301 307 304 301 310 312 304 300 300 301 297 297 303 300 299 300 297 299 306 308 307 305 308 308 304 305 304 297 294 296 299 302 300 298 296 294 294 294 293 293 292 291 291 291 290 290 289
308 304 302 303 304 303 304 304 304 306 306 306 313 317 313 312 312 308 309 308 303 303 304 303 303 302 301 300 301 300 300 300 303 303 302 302 304 306 304 301 299 302 307 304 300 304 309 308 302 301 302 297 297 300 299 299 301 298 297 299 304 306 304 307 309 305 305 303 298 294 297 307 307 298 296 296 293 293 293 292 291 291 291 291 290 290 290 289
310 306 302 303 303 303 304 303 304 307 306 310 320 317 310 315 313 306 309 311 304 304 304 301 302 305 304 303 302 300 299 298 301 301 302 303 306 309 306 302 300 301 306 307 304 300 302 305 301 297 297 297 298 298 295 298 300 297 295 296 302 307 304 304 304 301 299 301 302 298 300 308 304 296 295 294 293 293 292 291 291 291 291 291 290 290 290 290
309 305 302 302 302 304 303 303 306 306 308 316 317 313 318 319 307 303 308 305 302 305 303 302 302 305 307 305 303 301 297 298 301 301 301 302 304 305 304 304 301 300 301 304 306 302 301 303 299 296 298 296 297 298 296 300 300 296 297 300 299 297 299 302 300 296 295 299 303 300 301 304 301 298 295 292 293 293 292 293 291 291 291 290 291 291 290 290
308 305 302 302 303 303 303 305 306 306 314 319 313 313 319 312 300 304 308 302 302 303 302 303 303 303 306 305 304 303 299 299 301 301 301 302 303 303 304 304 299 299 299 299 302 302 302 304 300 297 301 297 293 297 298 298 298 298 300 301 296 293 298 301 299 300 301 302 302 300 302 305 304 303 297 293 296 295 292 292 291 290 290 290 291 291 290 290
306 305 302 301 303 302 304 306 304 310 320 316 312 314 312 304 301 305 306 302 303 303 301 302 303 302 304 304 303 301 299 302 304 303 302 302 302 303 306 305 299 298 298 296 299 301 300 304 301 295 298 298 293 296 300 297 294 297 298 296 296 298 304 302 299 303 303 301 302 303 301 300 302 306 301 295 296 294 292 292 292 291 291 290 291 291 291 291
306 309 306 302 302 303 304 306 305 313 319 314 315 314 306 305 306 303 303 302 303 303 302 303 303 301 303 304 305 301 298 302 302 301 302 302 302 302 302 304 301 298 298 297 300 301 298 301 302 296 294 296 296 298 303 302 297 296 297 296 296 299 304 302 298 302 304 300 303 305 303 302 303 305 302 296 293 293 293 293 292 292 291 290 291 291 292 292
305 312 310 301 302 305 304 306 310 314 313 312 317 313 305 307 307 301 300 301 302 301 302 305 303 302 303 303 304 302 300 302 301 300 303 301 302 303 300 301 302 300 297 296 298 301 298 298 303 300 295 296 299 299 303 306 304 301 300 300 299 297 298 299 296 299 303 302 303 302 302 307 304 298 297 295 293 293 293 292 292 292 291 291 291 291 291 291
306 314 312 302 302 305 305 309 313 312 310 309 311 309 305 306 305 302 300 299 300 299 299 303 303 303 305 303 301 300 302 305 302 302 303 301 302 302 298 299 303 300 298 298 299 302 299 297 303 304 298 299 301 297 296 301 304 305 305 305 304 300 300 301 298 298 298 300 304 301 300 304 300 293 293 294 293 292 292 292 292 291 291 290 290 290 290 290
310 314 308 302 302 304 309 312 306 302 310 309 305 305 305 304 302 303 302 299 300 299 298 300 302 303 305 302 301 301 303 307 304 303 305 303 302 300 298 298 300 300 303 304 300 300 300 299 301 301 298 298 297 292 291 296 298 299 301 301 301 302 303 303 304 303 298 296 298 298 299 301 295 291 292 293 293 292 291 291 291 291 291 290 290 290 290 290
315 311 304 302 304 305 309 310 303 304 312 306 301 302 304 304 303 301 301 301 301 300 300 302 302 302 303 301 302 302 302 304 305 306 307 305 302 299 298 299 299 298 303 303 299 298 299 299 300 301 302 298 294 291 291 293 295 297 298 297 298 302 302 302 304 303 301 298 297 297 299 300 294 290 292 293 292 292 291 290 290 290 290 290 290 290 290 289
315 308 304 303 302 304 309 310 307 309 313 306 303 305 303 302 303 303 303 303 302 302 303 304 302 301 302 301 302 302 301 302 304 303 302 304 303 298 296 300 298 296 300 302 301 299 300 302 301 302 304 302 300 301 299 296 295 298 300 298 298 300 299 298 297 296 298 301 299 298 300 300 294 291 291 292 291 291 290 290 290 290 289 290 289 289 289 289
309 304 307 306 302 304 308 313 314 314 315 312 308 308 306 303 303 303 304 304 303 303 304 303 300 301 302 301 300 302 302 301 300 300 299 301 302 298 297 300 298 297 302 302 300 296 298 304 302 300 302 301 302 305 304 302 299 297 298 297 297 298 298 299 299 298 299 300 298 299 302 298 293 290 290 291 291 291 290 290 290 289 289 290 289 289 289 289
304 306 311 309 306 307 304 305 312 317 317 314 308 306 307 306 304 300 301 303 303 302 301 300 300 301 301 300 301 303 303 299 299 300 301 303 305 300 297 299 299 299 302 302 300 299 301 301 299 300 302 301 301 301 300 300 300 297 298 299 298 297 296 299 302 300 300 298 297 299 299 297 295 292 291 292 292 291 291 290 290 289 289 289 289 289 289 289
303 307 311 306 305 309 306 305 309 311 309 308 305 304 305 306 304 300 299 300 301 300 301 301 300 301 301 301 302 304 302 299 299 300 301 304 306 300 294 296 299 299 299 299 298 300 301 299 299 300 299 299 299 299 297 296 296 296 297 298 299 298 296 297 299 299 299 298 298 298 297 297 297 295 295 295 292 290 291 290 290 290 289 289 289 288 288 289
301 305 306 301 301 307 305 306 309 308 303 302 302 303 304 307 307 305 303 300 299 300 301 301 302 302 303 303 303 303 302 300 301 303 303 303 303 300 297 296 296 297 297 295 296 300 302 301 299 297 297 299 297 295 295 295 295 295 296 296 297 297 297 297 296 297 298 298 297 297 297 298 296 295 296 294 291 290 290 290 290 289 289 289 288 288 288 288
302 304 301 298 303 310 306 303 306 307 304 302 303 305 305 308 310 307 303 301 303 302 300 303 306 303 302 301 300 302 304 303 302 303 304 304 301 301 302 300 296 294 295 295 296 298 301 303 300 296 298 299 298 296 295 295 295 296 296 295 295 295 296 296 295 295 295 296 296 296 296 295 294 295 294 292 290 290 290 289 289 289 289 288 288 287 287 288
305 305 303 301 305 307 304 303 305 307 305 302 304 307 305 309 312 307 301 304 308 305 299 302 307 304 302 301 300 301 305 305 301 298 301 304 301 302 306 304 301 297 295 296 297 295 296 301 300 297 298 300 299 297 295 295 296 296 295 295 294 294 295 294 294 294 294 295 295 294 294 294 293 293 291 290 290 290 289 289 289 288 288 288 288 287 287 287
302 302 302 304 305 304 304 305 305 308 307 303 305 308 305 307 310 306 304 305 306 306 304 304 308 306 301 299 300 302 303 303 301 298 301 303 300 301 302 301 303 302 298 296 297 296 295 298 297 297 299 301 299 297 297 297 296 296 297 296 294 295 296 296 294 293 295 297 295 293 295 295 292 291 290 289 290 289 289 289 288 288 288 287 287 287 287 287
301 300 301 304 305 305 306 305 303 305 308 307 307 307 305 306 306 304 303 304 303 303 305 306 307 305 303 304 305 304 301 299 299 299 300 301 299 299 298 297 301 305 301 296 297 296 295 298 300 298 300 303 298 295 298 298 297 300 301 299 297 297 296 295 294 293 293 295 296 296 295 294 291 290 290 289 289 289 288 288 288 288 287 287 287 287 287 287
Wind_Speed
7 6 4 4 2 4 5 6 7 8 8 9 9 10 10 10 10 10 11 10 9 9 8 7 5 5 4 2 2 5 4 3 6 15 13 9 12 13 13 13 13 14 13 14 13 9 4 5 8 6 4 3 3 1 1 2 2 4 3 3 1 3 3 4 6 5 2 2 5 5 2 1 3 3 1 1 3 3 2 4 3 4 4 5 4 5 5 8
6 4 1 4 3 2 3 5 6 7 8 9 9 10 10 10 10 10 10 9 9 9 8 6 4 5 4 3 5 6 4 3 7 14 13 11 13 12 12 13 13 12 13 13 12 9 5 4 7 6 4 2 3 2 2 1 2 3 3 2 3 5 4 4 5 3 2 2 5 5 3 1 3 2 1 2 4 5 3 5 3 5 8 5 3 5 4 10
3 2 1 4 3 3 3 4 5 6 7 7 7 7 7 7 8 8 8 8 9 9 7 5 5 5 4 4 6 6 4 3 5 7 11 13 13 12 12 13 12 10 12 12 10 7 3 2 3 4 4 2 1 2 2 2 1 2 3 1 5 5 4 4 3 3 3 2 4 5 3 1 3 2 1 2 5 4 3 6 4 6 8 4 2 1 5 11
3 3 2 2 3 3 2 2 4 5 5 5 5 5 6 6 6 6 7 7 7 7 6 5 5 5 5 6 7 6 4 5 3 6 12 14 13 12 12 12 10 9 11 10 7 5 2 0 2 4 4 2 3 3 2 2 1 2 3 4 5 4 1 3 4 2 3 1 2 4 4 4 4 2 1 1 3 6 6 8 7 9 8 4 4 4 7 11
3 2 1 1 2 3 2 0 1 2 2 3 4 4 5 6 6 6 6 5 5 6 6 5 5 5 6 7 7 5 4 4 3 8 13 14 12 12 12 11 8 9 10 7 5 4 3 3 4 5 4 2 4 3 1 2 1 2 2 5 4 3 1 3 1 2 3 1 1 4 4 5 3 2 2 4 5 7 5 6 7 7 6 5 6 7 8 10
2 1 1 2 4 4 2 2 1 0 1 1 2 4 5 5 5 6 5 3 4 5 5 4 5 5 6 7 6 4 5 2 5 11 14 13 12 11 10 9 8 9 8 5 5 3 3 5 5 4 3 2 2 2 1 3 2 1 3 1 2 3 0 3 2 3 2 3 3 3 3 3 3 4 2 5 9 10 5 4 5 5 6 6 7 8 9 10
0 1 2 3 5 5 4 3 2 2 2 1 1 2 3 4 4 5 4 2 3 5 5 5 5 6 8 7 6 4 6 2 8 13 14 13 11 10 8 7 9 8 4 6 7 3 4 7 5 3 4 3 1 1 0 3 3 2 2 2 0 2 0 3 2 3 3 3 4 2 3 3 3 5 2 4 12 12 6 2 3 6 5 5 6 7 9 10
1 2 3 3 5 5 5 4 3 3 3 2 1 1 1 1 2 3 2 3 5 6 5 6 6 7 8 7 5 5 4 2 10 14 15 13 9 9 7 7 8 6 6 10 8 1 3 5 2 3 3 1 3 2 1 2 4 3 1 2 0 1 3 4 3 4 5 3 4 4 5 7 6 2 3 10 14 10 4 1 1 1 1 4 6 6 8 8
2 2 3 3 4 5 5 5 4 4 4 4 3 3 2 2 3 4 6 8 8 7 7 7 7 8 7 4 6 4 2 2 9 15 16 13 9 7 6 8 10 8 9 11 10 5 3 2 1 2 3 1 3 1 3 2 2 1 1 1 1 2 5 5 3 4 5 3 4 5 8 8 4 1 4 12 10 5 1 2 3 2 3 4 5 6 7 7
3 3 3 3 4 5 5 4 4 4 5 5 5 5 5 6 7 8 10 10 9 8 8 8 8 7 5 3 6 3 1 3 9 15 17 14 9 5 5 9 10 10 9 9 11 9 4 2 3 3 5 2 3 1 3 2 1 2 3 2 3 3 5 4 2 4 5 3 2 4 10 7 2 1 5 7 4 3 1 2 3 1 3 5 6 6 7 8
3 3 2 3 4 5 5 4 3 4 5 5 6 7 8 9 10 11 11 11 10 9 8 7 7 6 4 5 6 3 1 4 8 15 18 12 7 3 4 8 9 9 8 8 8 6 4 1 4 4 2 1 2 3 3 1 2 2 3 2 3 5 3 5 4 4 5 1 1 4 9 5 1 2 7 7 5 3 1 3 4 2 5 5 6 6 6 8
5 4 3 3 4 4 4 3 3 4 4 6 8 9 10 10 11 12 13 12 10 10 9 9 8 6 6 7 5 2 1 5 7 13 17 11 6 2 3 7 8 8 7 6 6 5 4 1 5 5 0 2 2 2 1 2 3 1 3 0 6 7 3 5 5 3 3 1 4 5 6 3 2 6 10 6 4 4 1 5 5 5 6 5 6 6 5 8
6 5 3 3 3 4 4 3 4 4 4 6 8 9 10 10 12 14 14 12 11 10 8 7 4 2 4 4 2 1 2 5 8 13 15 13 6 0 3 7 5 6 7 5 5 5 4 1 5 6 2 4 2 1 2 4 4 1 3 3 4 7 3 3 4 5 1 0 6 5 3 6 6 10 10 5 3 2 3 6 6 6 6 5 5 5 6 8
6 5 4 2 3 3 3 4 4 4 5 8 10 11 11 12 13 14 11 9 7 6 4 3 1 1 4 1 2 1 3 5 8 14 17 14 7 2 2 6 2 3 6 4 4 7 5 5 8 6 2 4 1 1 4 6 4 0 2 2 3 3 4 4 4 5 3 1 7 6 2 9 10 9 9 4 3 2 5 8 7 7 6 5 5 5 6 8
5 5 4 2 3 3 4 5 5 5 8 12 12 11 11 12 12 10 8 5 4 4 3 3 2 3 4 1 1 1 5 7 9 16 17 13 9 4 4 4 3 3 4 4 6 9 7 6 7 5 1 3 3 4 4 4 4 3 2 3 3 1 4 7 4 5 3 3 7 5 3 9 11 10 5 2 3 3 7 9 8 8 8 7 6 6 6 7
4 5 5 2 2 3 4 5 6 8 12 13 11 10 9 10 10 9 8 6 5 3 3 3 2 3 4 1 1 2 5 8 10 14 14 9 8 8 7 3 4 5 6 6 6 6 9 7 5 3 1 4 5 4 3 4 4 4 3 1 4 2 4 7 3 3 3 4 6 4 2 7 9 8 4 0 3 4 7 10 9 9 9 7 7 6 6 6
3 4 4 2 2 4 5 5 7 10 12 9 7 7 8 8 7 7 7 7 7 5 6 5 3 3 3 2 2 3 6 8 10 14 12 7 7 9 7 4 4 5 8 7 5 4 8 7 1 1 4 4 3 3 4 3 4 4 4 1 3 2 2 5 3 3 6 3 4 3 3 9 12 12 10 5 5 6 8 11 10 8 8 7 6 6 7 6
4 3 3 1 3 5 6 6 7 10 9 7 8 9 10 10 8 6 4 4 3 3 5 6 6 3 1 4 2 5 10 10 10 13 12 6 5 8 9 6 3 3 4 5 6 5 5 4 2 2 4 5 4 5 4 2 2 2 1 1 3 3 2 4 5 3 8 5 4 3 5 12 15 15 14 8 4 6 8 9 9 8 7 7 6 7 7 7
4 3 2 2 4 6 8 7 8 10 10 10 11 10 9 9 8 7 9 8 2 1 1 3 4 2 2 4 4 9 9 7 7 11 13 9 4 5 8 8 4 4 4 2 4 5 3 3 5 3 3 4 3 3 4 5 4 4 3 3 2 4 4 6 6 4 6 6 6 4 5 11 15 17 16 10 3 4 8 7 7 8 7 6 6 6 7 7
3 2 2 3 5 8 9 8 9 11 12 10 7 5 3 4 4 5 9 10 2 2 2 2 1 1 2 3 6 11 6 2 4 11 16 12 4 3 6 8 7 6 5 0 3 3 3 5 3 2 3 3 3 2 4 4 4 4 3 2 3 4 5 5 5 5 5 5 6 3 6 12 13 15 15 10 6 4 6 7 7 7 6 6 6 6 7 7
3 3 3 4 7 9 10 10 10 11 11 8 3 2 1 2 2 1 2 4 1 2 1 2 3 0 2 3 7 9 2 0 5 12 18 12 4 2 4 6 6 5 4 2 3 3 5 5 1 5 7 5 3 3 5 4 4 4 3 1 2 3 6 5 2 5 5 5 5 4 10 15 13 12 11 7 6 5 5 5 7 8 8 6 5 7 7 6
4 3 3 5 8 10 11 10 9 8 7 4 0 2 2 2 3 3 3 2 1 1 2 1 1 2 3 2 5 6 3 4 6 11 17 13 6 2 2 6 6 1 4 2 2 4 6 2 5 5 5 4 4 3 4 3 4 3 1 1 3 2 4 5 3 4 4 3 5 7 10 14 13 11 10 5 3 5 5 4 6 7 8 8 7 7 7 6
5 3 2 5 8 11 11 10 8 6 5 2 1 4 4 5 5 3 3 3 1 2 3 3 2 3 4 2 5 7 5 4 3 8 16 12 5 3 3 5 5 1 5 4 2 1 2 3 5 4 5 5 4 3 4 3 2 1 1 0 4 3 2 3 4 5 4 1 4 7 8 10 9 7 7 4 3 4 5 4 4 4 5 7 8 6 6 7
6 4 2 4 8 11 11 10 8 6 6 6 5 7 7 7 5 3 4 3 1 2 0 0 2 1 1 2 6 5 3 1 1 6 13 8 2 2 4 4 4 3 3 2 5 4 1 2 3 5 3 5 2 1 3 2 2 2 3 3 3 2 1 4 4 7 5 2 1 5 6 6 5 6 6 5 3 4 5 6 6 5 4 5 6 6 6 5
6 5 3 4 8 10 11 9 6 5 6 7 7 9 9 7 3 2 3 3 2 2 1 1 1 0 1 2 6 2 2 1 2 4 8 6 2 1 2 2 3 2 3 2 3 2 0 1 3 4 3 4 3 2 2 4 2 4 3 5 5 3 2 3 6 7 5 3 2 3 4 5 5 5 6 5 7 6 6 9 11 10 9 9 10 10 9 7
7 6 4 4 7 9 9 6 4 3 3 4 5 7 7 6 4 2 3 3 2 3 1 1 0 2 2 3 6 1 2 2 2 1 4 5 2 2 2 1 2 2 5 4 1 1 1 1 2 4 3 4 3 2 5 5 3 2 2 4 5 4 1 3 4 3 2 4 4 3 3 4 6 5 6 5 7 8 7 10 11 10 10 10 9 9 9 10
7 6 4 4 7 9 6 3 4 4 1 0 4 6 5 3 2 1 3 4 3 1 1 1 0 2 2 3 4 1 0 3 1 2 4 4 3 3 2 2 0 1 2 2 2 0 2 2 3 3 4 3 1 3 4 6 6 2 3 5 4 2 2 2 1 1 2 4 4 2 4 2 5 5 6 4 5 9 10 11 11 10 10 10 9 10 10 9
8 5 3 4 8 8 3 1 4 5 2 1 5 7 5 1 3 1 4 3 2 0 2 1 0 2 2 3 4 2 1 3 1 1 4 5 3 2 2 2 5 2 0 2 2 2 2 2 3 4 4 1 3 4 5 7 3 3 3 4 2 1 3 3 4 2 1 2 4 3 2 1 5 6 5 4 5 8 9 9 10 10 9 10 10 10 10 9
8 4 2 3 6 5 2 2 4 4 2 3 6 7 5 0 3 3 4 1 1 1 1 1 0 1 4 4 4 3 2 2 1 3 5 5 3 4 3 2 6 4 1 2 3 3 1 2 5 6 4 4 4 3 4 5 1 2 5 4 3 3 2 3 4 2 2 2 3 5 1 1 5 5 4 5 5 4 7 6 6 7 8 9 9 10 10 9
8 4 1 2 4 3 1 2 3 4 3 4 7 7 4 0 4 6 2 2 0 1 1 1 1 2 5 3 3 4 3 2 3 4 4 2 3 6 3 2 5 5 1 4 1 3 1 1 2 4 3 5 3 1 2 3 1 3 4 2 3 4 3 3 2 3 3 2 5 5 2 1 3 5 1 2 3 2 4 4 5 6 8 8 8 9 9 9
9 6 1 2 2 2 1 1 2 4 4 7 9 6 2 2 5 5 2 3 1 2 1 2 2 4 6 2 1 4 4 4 5 4 4 2 4 6 4 1 3 4 3 4 2 4 3 1 2 1 1 3 4 2 2 2 2 3 3 2 2 4 3 3 4 3 2 4 5 4 3 1 1 5 3 1 3 2 2 3 5 7 8 8 7 7 7 7
9 8 3 1 2 2 1 1 3 5 7 11 10 4 4 3 1 2 3 3 1 2 0 1 2 2 3 1 1 3 3 3 4 4 2 3 2 2 2 2 1 3 4 2 2 5 3 2 2 2 1 3 4 2 2 4 4 3 2 4 4 4 4 3 4 1 2 4 3 2 2 1 5 7 3 1 2 1 1 2 3 5 5 6 7 7 6 6
8 9 7 3 1 1 1 2 5 9 12 12 6 5 7 4 2 4 2 2 1 1 1 2 1 0 0 1 1 2 1 1 3 3 1 1 2 2 1 2 4 1 1 2 1 4 4 4 2 1 1 1 4 3 1 1 2 1 2 3 2 2 3 4 4 3 4 4 2 2 2 2 4 4 2 4 3 2 2 2 2 3 3 4 5 6 5 6
6 7 7 6 4 2 2 4 9 13 13 8 4 5 5 1 5 3 2 3 1 2 2 2 2 1 1 0 1 2 0 1 2 2 1 1 2 2 2 2 2 3 3 2 0 1 1 4 2 2 1 1 3 3 3 3 3 2 3 4 3 3 2 4 4 2 5 5 3 3 1 3 2 1 2 6 3 4 3 2 1 0 1 3 4 5 5 6
5 5 6 7 6 5 3 7 12 13 10 5 6 5 3 3 4 2 3 4 1 1 1 1 2 3 3 2 2 1 1 1 1 2 1 0 2 3 2 3 4 3 4 1 2 1 1 5 4 1 1 2 2 2 3 4 2 1 2 4 2 3 4 2 3 4 2 4 4 2 3 4 3 1 1 4 3 3 2 1 1 3 3 4 5 5 5 5
4 4 5 6 6 6 4 8 11 9 6 6 6 2 4 4 2 2 3 1 2 2 1 1 2 2 3 4 2 2 1 1 1 2 1 2 3 4 3 3 4 4 4 3 3 1 1 5 4 2 2 1 2 2 1 1 1 1 2 2 3 3 5 3 2 1 3 1 4 1 3 5 3 2 1 3 2 2 3 2 3 4 3 4 5 5 5 5
3 4 5 6 6 5 4 7 8 5 4 7 4 3 5 3 2 3 2 0 1 3 4 1 1 1 1 2 2 2 1 2 2 2 2 2 3 4 3 2 2 3 4 3 3 2 2 4 5 1 1 1 1 2 2 2 2 3 2 4 2 2 4 4 0 3 3 2 4 1 3 5 3 2 4 0 3 4 4 3 1 2 3 5 6 5 5 4
3 4 4 6 5 3 4 6 6 4 5 5 1 3 3 2 1 2 1 0 1 2 4 3 2 1 2 2 2 2 1 1 2 1 1 2 2 3 4 2 1 1 1 2 1 1 3 2 6 1 2 2 2 2 2 3 2 3 3 3 2 2 1 1 1 1 0 2 4 4 4 3 3 4 5 3 1 1 2 2 2 5 6 6 6 6 6 5
2 2 2 5 4 2 4 4 3 4 6 2 3 2 1 2 1 1 1 1 0 2 1 3 1 1 2 4 3 2 2 2 2 0 1 2 2 2 4 3 2 1 2 2 2 1 3 1 4 2 2 2 2 1 2 2 3 3 0 1 1 3 4 2 2 3 3 2 3 4 6 3 6 5 6 6 4 2 3 5 5 5 4 3 4 5 6 5
3 2 1 4 4 2 3 3 3 5 4 3 4 2 1 2 2 1 1 1 1 1 2 3 2 1 3 4 3 2 1 2 3 2 2 2 3 3 2 2 4 3 2 3 2 1 2 2 4 4 3 1 1 3 5 5 3 2 1 1 1 1 1 1 1 2 4 3 2 2 5 5 5 3 6 8 5 4 4 2 3 3 3 3 4 4 5 5
3 2 2 3 3 1 2 4 4 3 2 2 2 2 1 0 1 1 0 2 1 1 1 2 3 3 3 3 3 2 2 2 3 2 3 3 3 3 1 2 6 6 2 2 1 1 1 3 3 3 3 3 4 3 3 6 6 5 4 5 4 3 3 1 3 1 2 3 4 3 5 7 4 2 6 7 5 5 5 2 2 4 4 4 5 4 5 5
4 2 2 2 1 2 3 4 1 1 2 2 2 1 0 1 1 1 0 1 0 1 0 0 2 3 3 3 2 3 3 2 3 3 3 4 5 3 2 2 4 6 5 3 3 3 3 3 1 5 5 5 4 3 1 3 4 4 3 3 4 4 5 4 3 3 0 2 3 3 2 7 3 3 5 6 5 5 5 4 2 4 5 4 5 5 6 5
3 1 1 3 1 1 5 2 2 1 1 2 1 1 1 1 1 1 1 1 1 1 0 2 3 3 2 2 2 3 4 3 4 5 4 4 4 3 2 2 2 4 4 2 2 1 2 2 0 5 5 2 4 4 2 1 3 2 1 2 4 3 3 5 5 3 2 3 3 2 3 6 3 2 4 5 5 4 3 4 4 4 4 5 5 6 5 5
2 2 0 3 3 2 4 2 2 2 3 2 2 1 2 2 3 3 3 3 2 2 1 3 3 2 1 1 2 3 5 3 3 4 3 3 3 1 3 2 2 3 2 3 3 2 2 1 1 3 7 6 6 6 5 4 0 3 3 2 3 3 6 4 3 3 1 5 6 4 6 6 3 3 3 3 4 4 3 4 4 4 4 5 5 5 6 5
1 1 2 3 5 5 3 4 4 2 2 1 2 3 2 1 2 3 3 3 3 4 2 2 1 0 1 2 1 2 3 2 2 2 1 2 3 2 4 4 1 1 2 2 1 1 2 2 3 2 4 5 6 6 4 2 2 1 2 3 4 5 7 4 2 3 3 5 6 6 7 5 3 5 5 4 4 4 3 3 4 4 5 6 5 5 6 5
1 1 2 4 5 5 2 1 4 3 2 1 2 3 1 2 3 1 3 3 2 3 2 2 1 1 1 1 1 3 4 3 1 2 1 3 4 2 1 2 2 1 1 1 2 3 2 1 3 6 8 7 8 8 2 3 2 3 4 5 6 6 6 5 3 4 5 2 3 8 9 7 7 8 8 6 3 3 4 3 4 5 5 6 5 6 7 6
1 1 1 1 3 3 2 2 3 3 1 3 2 2 2 3 3 1 2 3 1 1 1 2 2 3 2 3 3 3 2 1 0 2 3 4 4 3 2 1 2 3 3 1 1 3 4 3 5 8 11 10 10 10 2 2 4 7 7 7 8 7 7 7 7 7 4 3 7 11 7 7 13 10 6 5 3 3 5 5 6 6 6 6 6 7 8 7
1 1 1 1 1 1 0 1 2 4 1 1 2 1 2 2 2 2 2 1 2 1 2 2 3 6 7 5 3 2 1 0 2 3 3 2 2 2 3 1 1 3 3 1 1 3 4 4 4 5 8 10 10 11 7 4 6 7 8 11 10 8 10 12 14 11 6 6 13 11 5 8 13 10 4 4 3 3 5 5 5 6 7 7 7 9 10 7
1 0 1 2 0 3 2 1 2 4 2 1 1 2 3 4 5 5 2 1 2 3 3 3 6 7 7 5 3 2 3 2 3 4 3 2 2 1 1 2 1 3 2 2 1 2 4 4 2 2 5 8 9 12 9 7 7 7 10 13 11 10 12 14 14 11 8 11 15 13 13 15 13 8 4 3 4 4 4 5 5 6 7 8 8 10 10 7
1 1 1 2 2 1 1 2 3 4 1 1 2 4 3 5 6 4 2 4 3 2 3 5 7 4 5 6 5 5 8 7 2 3 4 3 2 2 3 3 2 2 2 2 0 1 2 3 1 3 4 7 7 6 5 4 5 8 12 13 11 10 11 11 11 8 6 11 14 11 13 15 9 2 1 3 4 3 4 5 7 7 7 8 10 12 10 7
1 1 2 3 1 0 1 2 3 3 1 1 3 4 2 4 6 4 3 6 6 4 6 8 5 1 2 4 7 10 11 8 4 3 6 6 4 4 4 3 5 5 2 2 1 1 3 2 1 4 3 7 2 3 3 3 3 7 13 15 14 11 8 7 7 6 7 8 7 4 7 9 4 1 2 4 4 4 6 6 7 8 8 8 11 12 10 6
1 1 2 3 1 2 1 1 1 2 2 3 4 4 3 3 4 2 2 3 3 4 7 8 5 2 1 4 9 11 9 5 6 5 5 4 2 2 3 2 5 6 6 5 1 1 4 3 0 2 2 6 3 3 3 4 5 8 10 11 12 10 7 5 4 6 8 7 5 4 6 4 1 2 5 6 5 6 7 6 6 9 10 10 10 9 7 6
Wind_Direction
97 143 134 35 327 274 259 258 259 250 252 253 253 251 252 252 254 256 257 259 258 259 258 263 264 264 259 226 155 152 142 95 46 40 44 18 357 351 346 342 341 344 344 347 355 8 28 29 18 28 99 89 8 1 32 25 77 62 84 108 205 203 205 194 190 202 196 273 290 325 13 132 293 317 352 319 5 12 313 298 288 299 260 227 260 299 276 193
83 121 117 351 322 302 284 265 256 253 254 251 250 250 252 254 257 258 258 260 256 255 251 250 248 241 235 188 160 146 140 100 52 43 29 4 357 348 341 342 341 343 346 347 353 8 27 355 351 22 65 65 352 7 30 6 70 90 114 124 224 204 215 201 191 212 194 277 287 311 341 233 256 289 24 264 300 350 324 285 312 301 272 244 269 299 240 186
107 126 294 325 334 348 312 280 259 252 251 248 249 249 252 254 257 260 257 257 249 244 239 231 224 221 205 167 150 146 146 80 51 19 5 1 354 343 341 341 338 343 346 345 347 357 20 315 341 39 57 54 340 6 45 21 26 150 123 153 239 216 237 236 209 233 229 271 304 313 338 277 271 305 7 238 284 320 248 256 264 262 263 244 231 251 196 187
178 228 268 346 351 359 336 276 248 243 241 241 243 243 248 252 254 255 252 249 243 230 218 207 205 202 180 153 135 149 138 62 31 335 356 357 350 345 341 339 341 347 343 342 346 350 2 100 54 65 71 44 339 10 63 353 336 148 137 188 227 198 235 270 212 246 275 222 250 294 319 307 301 309 250 192 290 293 248 238 231 243 253 223 209 198 190 195
167 213 247 8 12 21 26 287 235 223 225 233 244 253 256 258 255 254 249 241 232 212 194 184 183 169 152 143 135 141 94 50 331 343 354 350 351 346 339 344 348 344 343 348 352 7 43 81 68 50 57 56 353 21 75 319 70 135 210 198 202 165 139 305 224 286 296 182 287 322 326 305 315 294 211 171 229 257 237 220 211 232 245 207 194 187 189 203
160 159 79 31 37 34 34 54 52 77 204 234 249 258 255 253 251 247 248 240 211 181 173 169 159 144 142 142 141 116 91 105 329 354 349 346 354 346 344 350 350 346 350 11 12 36 58 46 57 56 50 56 12 61 139 315 35 176 276 284 208 196 189 325 321 312 336 54 348 321 316 318 346 305 232 180 231 241 221 199 198 238 254 220 187 179 190 203
106 67 47 34 41 35 35 50 49 66 91 91 245 256 256 252 244 239 245 234 176 163 161 156 144 139 142 138 128 76 88 126 343 354 345 349 355 347 356 357 356 354 4 25 12 47 77 42 64 120 86 64 178 124 62 312 26 102 270 344 222 209 276 312 304 337 22 24 296 292 321 297 263 286 331 235 244 249 251 234 228 260 262 210 181 185 199 205
5 26 33 31 37 32 32 41 50 64 70 55 12 331 304 249 217 219 198 164 155 154 157 154 150 144 144 138 118 54 45 332 349 355 346 348 353 353 2 9 13 17 39 31 14 101 95 48 87 149 87 78 175 126 1 322 27 77 244 304 53 296 311 322 338 6 2 319 314 331 291 265 236 230 321 260 253 260 271 358 323 258 176 183 189 202 207 211
3 8 22 28 31 30 32 40 55 65 59 52 40 38 61 109 148 141 137 146 147 151 155 150 148 141 140 122 93 55 340 342 1 360 352 346 348 355 0 18 27 37 52 39 31 66 85 70 201 180 151 168 137 73 351 10 349 145 146 274 78 347 319 343 348 346 335 295 8 336 279 279 253 186 276 259 264 291 296 57 11 106 154 206 208 212 211 219
8 4 17 25 31 32 34 46 61 65 57 58 57 63 87 106 119 123 127 133 135 141 141 140 144 139 135 82 73 69 313 29 6 1 358 346 341 345 360 20 28 37 49 40 37 54 72 179 203 146 140 122 93 34 348 55 92 149 117 114 82 353 308 356 326 315 327 258 35 321 277 286 257 211 274 267 302 335 80 20 342 141 208 228 222 224 218 226
14 17 29 26 36 36 37 53 67 72 69 74 81 87 98 105 113 118 122 126 129 134 135 134 130 122 113 87 88 106 20 10 347 353 356 346 342 339 0 15 17 27 37 37 33 39 42 169 162 121 127 87 83 9 355 101 109 115 100 120 5 353 322 10 353 329 351 272 29 300 275 291 88 204 240 263 332 3 114 278 299 259 248 243 234 235 222 230
22 27 32 33 43 39 43 68 82 81 82 86 94 99 101 109 116 119 121 120 120 121 125 126 119 110 89 76 86 117 11 356 336 341 353 358 360 349 16 8 6 21 23 26 19 15 24 30 116 97 282 130 109 359 54 85 74 94 69 101 321 0 10 356 348 311 2 330 327 311 290 322 161 227 247 273 350 28 18 275 276 259 257 257 246 243 231 236
28 27 32 44 48 46 62 88 86 76 79 94 102 102 104 113 121 124 120 111 109 111 117 125 125 112 75 69 86 104 345 348 339 336 356 14 12 48 39 3 358 23 18 24 16 9 21 56 108 106 112 104 121 279 98 46 43 263 36 70 334 4 348 337 346 307 336 37 341 2 313 298 243 237 264 298 54 52 316 276 272 263 260 260 248 246 241 237
28 27 32 52 58 63 80 91 90 77 87 107 107 103 105 112 123 128 119 103 102 106 112 122 128 91 75 93 202 69 343 343 349 347 360 13 25 112 17 6 13 17 16 50 49 31 61 114 97 95 89 84 125 23 42 12 24 3 4 49 24 11 282 312 358 347 24 16 5 49 210 281 277 265 276 300 103 150 271 269 273 270 264 263 251 248 247 238
23 24 28 59 79 78 95 107 108 101 108 115 109 104 106 112 122 122 111 97 91 100 107 98 103 104 79 64 213 354 348 1 8 1 358 3 24 17 332 26 82 22 30 94 83 61 78 111 79 61 317 19 54 54 26 352 14 33 11 327 349 24 282 314 355 38 32 301 360 48 218 277 287 284 291 329 125 181 259 266 270 272 269 269 264 256 256 255
17 20 22 57 96 98 116 118 120 122 121 116 104 102 105 111 116 108 96 86 88 104 94 73 63 87 90 47 325 6 357 358 360 359 357 1 20 1 343 48 71 57 94 110 104 73 52 63 64 44 358 22 50 67 40 13 358 5 49 291 304 331 312 321 347 43 15 296 346 20 246 282 282 275 285 202 192 225 264 272 273 273 274 272 271 269 266 270
20 20 21 57 115 119 129 127 130 135 128 114 96 95 99 101 106 109 100 80 83 88 75 59 32 77 77 4 12 3 336 334 344 356 1 14 24 10 13 57 52 67 99 81 61 35 25 41 73 5 43 42 46 73 59 15 321 326 27 33 288 289 296 316 308 347 17 12 331 344 232 265 272 277 289 277 243 255 268 278 280 275 273 270 269 271 266 265
18 25 32 86 147 140 140 137 137 140 133 113 96 95 95 91 87 96 95 71 72 64 59 36 29 83 25 353 359 307 310 317 340 359 5 16 25 24 34 43 29 46 62 40 33 28 15 24 64 39 24 20 23 62 94 209 229 240 305 15 316 298 252 286 280 317 16 14 295 298 262 272 283 291 297 292 252 257 267 276 283 283 278 273 270 268 268 267
11 33 59 120 151 151 146 141 140 143 138 122 108 102 97 88 76 64 52 48 39 9 32 344 26 116 260 315 307 309 311 314 348 4 8 11 10 23 32 31 37 61 56 20 10 25 23 17 45 56 3 355 8 76 130 178 161 165 189 160 230 288 275 264 263 292 2 342 288 278 274 284 297 299 301 311 313 261 271 285 288 288 287 281 275 265 268 268
359 37 92 132 154 156 147 142 145 146 144 133 114 91 85 72 39 19 32 41 71 136 111 219 144 91 305 306 320 332 328 304 9 13 11 7 358 11 17 17 27 48 56 316 325 10 75 59 51 172 209 220 227 172 118 128 120 119 132 149 213 250 280 274 277 299 353 344 281 281 303 290 291 290 292 312 340 316 297 306 300 298 304 293 285 275 269 265
356 26 80 133 162 161 150 148 151 151 150 143 104 53 151 157 48 357 23 28 286 177 85 215 181 124 290 289 330 344 347 315 2 12 12 6 9 28 357 18 45 38 8 266 280 346 63 75 182 214 202 189 183 157 113 96 79 85 132 262 291 236 260 271 285 302 1 17 285 330 333 301 295 295 294 319 346 330 312 312 314 317 319 308 295 287 279 274
4 16 72 128 158 163 158 153 151 153 153 155 84 83 138 159 121 148 147 89 285 274 40 357 69 335 291 279 341 354 48 32 350 355 4 5 23 52 349 42 77 80 346 343 312 4 41 104 220 212 176 118 79 106 99 91 92 75 116 24 318 271 278 297 330 325 356 4 292 340 337 300 299 298 293 308 299 290 290 279 300 314 322 332 328 309 304 306
13 18 69 135 158 167 165 154 147 141 122 98 126 126 113 111 123 128 99 96 312 331 24 29 54 339 326 1 2 12 55 49 329 330 352 5 30 61 85 65 78 72 4 23 130 103 43 241 218 176 147 115 71 58 75 80 94 114 164 66 292 301 348 299 321 333 324 304 281 317 313 291 310 315 298 290 248 280 306 285 280 289 301 316 319 315 312 312
20 18 38 142 160 170 169 158 147 120 78 63 95 124 117 107 112 86 69 85 329 307 3 127 159 178 324 350 351 13 85 91 224 313 348 20 83 46 89 112 85 61 3 49 119 128 193 245 147 113 112 129 130 356 85 101 336 289 198 171 225 277 286 243 295 322 326 31 300 316 319 295 328 339 308 305 318 331 344 4 9 357 335 325 339 353 340 316
24 15 26 136 156 165 167 160 147 112 69 65 98 124 116 92 65 57 77 76 324 301 300 240 179 145 208 342 346 352 136 33 227 279 345 37 108 16 80 131 94 111 204 169 106 103 172 208 143 111 69 95 132 256 209 163 321 311 227 184 178 186 231 274 323 337 355 358 315 12 8 298 316 328 288 312 355 345 358 26 19 5 5 13 17 13 4 355
24 17 37 127 152 158 163 161 151 131 68 56 118 141 121 81 49 69 85 59 326 288 325 216 141 1 289 341 352 13 100 343 266 298 13 38 61 108 107 325 34 138 190 164 120 188 115 65 103 128 115 87 91 263 242 162 105 326 235 169 145 136 189 304 336 359 4 293 284 74 115 263 310 315 284 313 355 344 5 30 18 6 9 18 20 12 11 11
22 23 49 120 151 157 164 170 172 163 120 19 172 168 147 91 40 51 67 39 336 263 91 237 327 26 296 321 355 94 113 309 315 41 35 28 7 83 89 284 350 114 187 135 21 248 144 86 63 93 98 95 115 263 230 143 113 266 215 140 120 120 252 254 155 154 235 278 313 21 143 213 296 284 282 314 9 359 8 22 13 6 6 13 20 16 16 16
21 29 61 121 153 160 151 116 157 160 152 185 178 177 162 108 312 343 82 66 316 49 91 292 321 41 339 339 23 81 275 316 71 306 351 36 20 45 50 217 171 165 233 128 283 266 143 158 189 146 100 153 222 228 191 144 118 252 188 133 126 176 212 176 138 171 287 346 325 314 131 168 271 273 311 352 42 11 353 6 9 3 2 10 19 15 14 18
20 34 69 128 158 160 106 92 137 144 135 145 164 174 168 228 324 48 80 141 291 37 72 348 149 320 344 356 6 18 338 354 71 286 332 46 41 42 70 172 137 125 5 85 200 230 135 220 197 151 144 213 226 242 184 142 80 201 138 103 68 71 81 92 105 132 44 21 263 275 357 142 267 285 342 18 48 2 324 340 1 360 4 13 19 14 11 15
20 29 74 146 166 168 107 85 126 134 119 135 156 164 161 10 38 65 58 249 261 319 269 24 260 329 18 26 329 357 32 346 327 324 349 46 12 32 91 161 99 111 347 16 164 237 335 303 190 141 176 196 162 72 136 127 120 133 112 70 46 47 43 53 66 98 61 319 255 267 289 123 291 287 289 11 358 301 291 318 345 0 10 14 18 16 11 14
22 27 51 177 184 200 215 38 143 147 130 140 148 141 111 32 61 95 216 245 202 307 357 36 323 19 39 67 275 358 20 337 331 0 17 2 350 17 56 76 50 62 0 357 330 303 351 25 246 259 209 146 112 74 67 77 93 110 84 30 14 357 15 25 357 44 78 267 261 275 280 143 237 258 225 326 325 253 231 330 346 353 2 8 16 18 15 17
25 29 37 147 187 206 211 158 152 145 138 142 137 103 80 48 31 171 258 309 350 293 23 43 325 42 34 12 31 350 338 336 7 47 42 8 353 355 44 175 179 20 346 300 313 328 312 234 267 314 248 146 126 108 10 13 48 82 65 49 29 347 358 356 322 333 212 240 249 297 315 215 236 251 236 88 22 346 8 1 328 327 344 2 16 18 18 21
28 32 40 59 112 197 167 140 145 140 141 142 122 56 76 82 242 220 266 317 326 317 36 61 8 83 296 329 358 328 297 291 22 50 126 30 4 318 299 192 173 84 315 225 320 350 329 296 310 51 275 179 140 148 236 342 77 133 149 101 84 32 10 315 289 301 287 262 258 304 323 268 266 273 209 139 97 10 353 339 285 293 339 3 20 20 20 26
33 37 45 56 65 79 120 141 145 143 144 137 83 58 82 141 236 216 256 261 265 352 28 70 18 355 38 3 292 295 315 308 1 29 358 14 15 298 278 240 182 122 105 125 23 55 344 300 267 163 237 174 159 179 163 136 128 189 164 123 138 152 164 262 246 259 289 289 290 299 269 211 215 288 170 151 109 15 354 307 264 267 353 22 33 27 26 26
45 51 57 59 60 57 88 144 148 147 146 110 61 76 127 227 245 212 239 245 231 350 339 75 74 42 353 323 306 289 178 266 330 21 356 245 191 213 224 218 199 147 118 144 255 137 155 269 264 295 289 142 174 218 126 103 98 232 138 105 149 180 153 196 203 191 255 316 304 268 227 216 201 287 356 123 98 25 5 229 94 48 22 36 39 27 26 19
54 62 63 58 57 54 87 143 148 149 137 89 66 90 193 225 236 189 211 212 148 160 150 2 72 73 316 309 331 355 15 251 312 357 295 231 214 206 205 214 197 163 136 152 221 153 92 278 285 350 341 99 167 211 88 69 183 135 121 166 215 180 120 114 258 353 67 322 282 245 255 287 328 322 326 81 56 15 17 15 48 42 18 35 37 25 18 8
61 68 65 48 51 65 110 142 150 150 100 85 99 208 219 224 191 184 198 16 174 137 118 176 249 179 245 287 299 312 334 284 314 344 265 256 242 197 196 233 187 171 167 160 222 201 147 272 294 43 166 301 186 160 32 16 127 116 172 216 201 107 82 99 229 351 35 261 272 266 250 278 339 279 236 346 10 359 351 336 5 36 28 32 25 10 357 346
66 82 71 40 40 76 122 143 155 134 79 79 151 239 221 205 188 181 176 127 223 84 101 185 227 203 188 205 267 263 183 256 306 340 245 259 262 180 162 182 96 80 210 144 196 286 119 273 300 315 173 300 19 104 2 349 63 107 189 207 120 136 244 75 142 251 276 267 280 292 283 255 215 223 214 203 253 325 321 327 17 19 23 21 7 354 340 333
41 73 49 20 29 80 129 153 143 81 72 108 220 251 220 227 262 191 163 305 193 114 163 218 210 59 171 174 210 219 185 215 219 267 226 219 262 204 161 176 144 38 323 96 146 216 103 138 284 288 211 297 15 124 222 283 24 43 233 313 39 162 185 164 154 173 182 240 273 304 319 277 222 215 175 175 188 117 45 19 9 0 3 355 345 341 326 321
37 60 310 356 33 99 148 137 75 64 82 170 203 218 251 272 275 221 179 204 186 168 220 216 170 172 205 198 214 201 175 209 185 191 233 220 260 257 203 155 143 156 338 44 104 172 79 131 250 293 318 273 231 205 195 180 148 109 186 248 288 183 164 188 212 140 141 187 219 275 294 269 241 213 156 158 162 132 103 41 328 302 303 300 309 318 308 301
62 55 288 351 43 147 127 73 50 73 122 177 207 213 246 215 202 311 189 153 179 245 207 183 182 192 190 199 231 194 156 202 196 203 244 231 230 246 257 128 151 155 119 74 95 213 140 155 216 281 301 225 232 243 196 179 166 158 180 198 188 159 130 143 276 289 112 173 187 180 265 268 248 169 147 147 153 163 158 148 287 277 264 268 279 292 296 288
77 66 287 1 53 188 96 72 16 91 130 197 234 220 267 85 158 263 197 129 208 263 144 177 197 190 182 182 197 178 163 192 204 204 232 229 216 222 325 24 144 137 117 145 227 223 153 119 200 263 250 227 261 304 173 176 153 138 173 189 152 139 136 146 221 255 187 208 182 136 250 273 260 150 148 150 157 168 171 174 222 262 255 262 276 285 290 276
97 167 278 32 13 159 86 71 289 335 241 247 284 254 203 131 167 209 194 194 216 155 355 284 209 199 228 190 145 176 192 194 191 197 224 239 230 235 318 341 157 128 103 152 224 220 139 102 276 279 288 310 331 349 26 58 94 130 229 170 147 159 150 155 180 184 183 215 180 132 256 266 259 188 168 159 165 165 177 200 217 246 266 273 275 285 293 278
144 205 255 25 12 105 114 167 222 273 278 304 353 300 241 205 186 177 192 216 205 154 182 251 222 215 250 137 131 200 211 208 206 215 217 211 230 315 6 342 196 159 144 188 185 179 211 187 91 316 320 330 342 353 351 340 176 200 239 211 175 133 102 113 154 120 235 228 176 173 256 258 213 197 190 161 173 189 207 225 232 259 288 290 286 292 297 288
109 315 300 351 28 81 137 184 155 166 260 349 324 274 253 252 212 178 186 213 195 170 189 262 257 294 86 105 70 242 227 221 233 266 332 222 260 332 16 353 315 202 231 216 161 148 205 199 142 189 270 281 285 298 303 274 215 207 235 219 206 165 144 158 149 126 230 236 161 177 247 260 171 187 223 217 197 214 225 232 260 282 293 296 301 306 306 301
101 348 305 328 14 64 90 135 111 122 171 157 289 283 220 248 276 205 183 203 183 162 193 269 231 76 74 153 237 263 248 226 230 314 300 241 268 290 315 351 17 324 254 115 65 70 109 215 209 204 219 225 241 256 232 131 194 245 240 221 211 200 176 141 118 176 204 197 202 224 236 264 263 233 232 251 286 300 293 305 307 299 295 296 299 304 309 303
121 190 167 328 346 34 33 10 83 107 170 182 218 268 226 250 296 333 197 215 218 150 215 226 180 185 196 181 205 247 246 223 285 271 242 231 254 281 267 109 65 347 345 64 87 96 99 271 239 214 230 239 249 260 253 101 250 247 249 241 216 197 175 164 197 216 170 134 262 251 209 233 263 255 225 235 262 287 294 305 309 305 304 301 297 303 307 298
117 206 163 120 281 223 4 315 135 123 128 196 191 220 235 249 261 239 222 276 337 224 207 230 221 213 200 173 169 216 224 325 264 246 246 252 262 323 339 147 137 338 357 53 358 106 134 253 237 202 246 259 262 269 266 257 256 244 250 254 237 203 187 199 221 221 170 198 254 264 231 232 262 276 261 230 243 269 274 277 286 294 297 297 302 307 306 294
91 156 312 20 339 186 177 337 118 128 152 187 208 224 207 212 234 238 193 81 322 261 195 235 256 231 208 190 177 213 212 203 265 258 220 205 218 207 310 243 214 350 32 117 2 123 157 244 229 163 277 272 260 265 263 255 261 260 257 255 248 228 210 214 233 228 204 231 253 268 276 270 272 278 267 243 250 261 268 279 286 289 295 300 304 306 308 298
124 199 236 38 37 137 83 37 99 123 163 202 240 245 208 198 228 254 182 168 227 268 181 227 254 230 201 205 202 231 224 196 237 277 180 176 249 208 216 221 158 50 32 124 207 228 197 252 149 97 314 278 260 274 271 241 243 259 267 262 250 244 232 225 237 228 212 247 260 266 274 276 277 272 249 266 271 280 294 297 296 292 297 307 308 307 307 297
153 183 143 110 48 219 51 20 101 125 187 220 217 237 242 215 213 226 241 204 190 174 181 208 229 148 141 202 213 241 243 212 219 239 174 180 238 216 217 215 143 136 167 171 169 179 182 248 26 68 320 277 300 11 322 292 266 259 268 264 247 235 224 217 224 205 191 220 245 260 266 265 265 26 313 288 287 300 301 301 304 302 303 304 300 299 299 291
167 341 94 108 262 255 127 69 80 128 227 224 205 219 243 240 213 194 294 270 192 180 196 194 180 129 119 216 222 240 253 232 228 228 178 173 218 193 203 191 140 141 168 172 165 167 161 174 117 94 257 273 311 358 315 329 318 272 256 248 235 217 202 220 245 219 198 183 179 220 240 230 182 357 324 312 305 301 302 302 298 298 301 297 288 286 286 280